Lumberton, NC

1:05 AM EDT on April 25, 2018 (GMT -0400)
Lumberton Municipal

Weather History for KLBT - February, 2013

Change the Weather History Date:

Saturday, February 2, 2013

  Actual Average Record
Temperature  
Mean Temperature 37 °F 44 °F  
Max Temperature 50 °F 55 °F 72 °F (2017)
Min Temperature 23 °F 34 °F 23 °F (2013)
Degree Days  
Heating Degree Days 28 21  
Month to date heating degree days 55 42  
Since 1 July heating degree days 1579 1761  
Cooling Degree Days 0 0  
Month to date cooling degree days 0 0  
Year to date cooling degree days 4 1  
Moisture  
Dew Point 19 °F    
Average Humidity 51    
Maximum Humidity 76    
Minimum Humidity 25    
Precipitation  
Precipitation 0.00 in 0.08 in 0.68 in (2015)
Month to date precipitation 0.00 0.16  
Year to date precipitation 1.48 3.13  
Sea Level Pressure  
Sea Level Pressure 30.27 in    
Wind  
Wind Speed 4 mph (SSW)    
Max Wind Speed 15 mph    
Max Gust Speed 20 mph    
Visibility 10 miles    
Events      
T = Trace of Precipitation, MM = Missing Value Source: NWS Daily Summary

Daily Weather History Graph

Daily Weather History Graph

Search for Another Location

Airport or City:

Astronomy

Feb. 02, 2013 Rise Set
Actual Time 7:13 AM EST 5:47 PM EST
Civil Twilight 6:47 AM EST 6:13 PM EST
Nautical Twilight 6:16 AM EST 6:43 PM EST
Astronomical Twilight 5:47 AM EST 7:13 PM EST
Moon No Moon Rise 10:41 AM EST (2/2)
Length of Visible Light 11h 26m
Length of Day
10h 33m
Waning Gibbous, 60% of the Moon is Illuminated
Feb 2
Waning Gibbous
Feb 3
Last Quarter
Feb 10
New
Feb 17
First Quarter
Feb 25
Full

Hourly Weather History & Observations

Time (EST) Temp. Windchill Dew Point Humidity Pressure Visibility Wind Dir Wind Speed Gust Speed Precip Events Conditions
12:54 AM 27.0 °F 23.0 °F 12.9 °F 56% 30.38 in 10.0 mi NNE 3.5 mph - N/A   Clear
1:54 AM 28.0 °F 24.2 °F 10.0 °F 47% 30.39 in 10.0 mi NNE 3.5 mph - N/A   Clear
2:54 AM 27.0 °F - 9.0 °F 47% 30.39 in 10.0 mi Calm Calm - N/A   Clear
3:54 AM 25.0 °F 19.3 °F 12.0 °F 58% 30.40 in 10.0 mi NE 4.6 mph - N/A   Clear
4:54 AM 25.0 °F - 10.0 °F 53% 30.40 in 10.0 mi Calm Calm - N/A   Clear
5:54 AM 25.0 °F - 10.9 °F 55% 30.40 in 10.0 mi Calm Calm - N/A   Clear
6:54 AM 24.1 °F - 12.9 °F 62% 30.41 in 10.0 mi Calm Calm - N/A   Clear
7:54 AM 25.0 °F - 14.0 °F 63% 30.42 in 10.0 mi Calm Calm - N/A   Clear
8:54 AM 28.9 °F 20.4 °F 12.0 °F 49% 30.42 in 10.0 mi ESE 9.2 mph - N/A   Clear
9:54 AM 33.1 °F 27.7 °F 10.9 °F 40% 30.41 in 10.0 mi Variable 5.8 mph - N/A   Clear
10:54 AM 36.0 °F 31.1 °F 9.0 °F 33% 30.38 in 10.0 mi East 5.8 mph - N/A   Clear
11:54 AM 39.9 °F 36.7 °F 10.0 °F 29% 30.34 in 10.0 mi ESE 4.6 mph - N/A   Clear
12:54 PM 43.0 °F 38.8 °F 12.0 °F 28% 30.29 in 10.0 mi Variable 6.9 mph - N/A   Clear
1:54 PM 46.0 °F 41.4 °F 12.9 °F 26% 30.23 in 10.0 mi South 9.2 mph - N/A   Clear
2:54 PM 48.9 °F - 19.9 °F 32% 30.19 in 10.0 mi WSW 8.1 mph - N/A   Clear
3:54 PM 50.0 °F - 21.0 °F 32% 30.18 in 10.0 mi SW 9.2 mph 19.6 mph N/A   Clear
4:54 PM 50.0 °F - 24.1 °F 36% 30.15 in 10.0 mi SSW 6.9 mph - N/A   Clear
5:54 PM 48.0 °F - 27.0 °F 44% 30.14 in 10.0 mi Calm Calm - N/A   Clear
6:54 PM 44.1 °F 42.5 °F 33.1 °F 65% 30.12 in 10.0 mi Variable 3.5 mph - N/A   Clear
7:54 PM 43.0 °F 40.3 °F 35.1 °F 74% 30.10 in 10.0 mi South 4.6 mph - N/A   Scattered Clouds
8:54 PM 42.1 °F 39.2 °F 35.1 °F 76% 30.09 in 10.0 mi SSW 4.6 mph - N/A   Mostly Cloudy
9:54 PM 42.1 °F 40.2 °F 36.0 °F 79% 30.09 in 10.0 mi WSW 3.5 mph - N/A   Overcast
10:54 PM 43.0 °F 39.5 °F 36.0 °F 76% 30.09 in 10.0 mi WSW 5.8 mph - N/A   Overcast
11:54 PM 42.1 °F 40.2 °F 37.0 °F 82% 30.06 in 10.0 mi WSW 3.5 mph - N/A   Overcast